Year,Month,Day,Hour,Minute,Value (Times are PST for temperature in C)
2017,08,04,00,00,17.70
2017,08,04,00,01,17.20
2017,08,04,00,02,17.20
2017,08,04,00,03,17.10
2017,08,04,00,04,17.00
2017,08,04,00,05,16.80
2017,08,04,00,06,16.50
2017,08,04,00,07,16.30
2017,08,04,00,08,16.10
2017,08,04,00,09,15.90
2017,08,04,00,10,15.70
2017,08,04,00,11,15.70
2017,08,04,00,12,15.60
2017,08,04,00,13,15.60
2017,08,04,00,14,15.60
2017,08,04,00,15,15.50
2017,08,04,00,16,15.50
2017,08,04,00,17,15.50
2017,08,04,00,18,15.50
2017,08,04,00,19,15.50
2017,08,04,00,20,15.50
2017,08,04,00,21,15.50
2017,08,04,00,22,15.60
2017,08,04,00,23,15.60
2017,08,04,00,24,15.70
2017,08,04,00,25,15.60
2017,08,04,00,26,15.60
2017,08,04,00,27,15.50
2017,08,04,00,28,15.50
2017,08,04,00,29,15.40
2017,08,04,00,30,15.40
2017,08,04,00,31,15.40
2017,08,04,00,32,15.40
2017,08,04,00,33,15.40
2017,08,04,00,34,15.40
2017,08,04,00,35,15.30
2017,08,04,00,36,15.30
2017,08,04,00,37,15.30
2017,08,04,00,38,15.20
2017,08,04,00,39,15.10
2017,08,04,00,40,15.10
2017,08,04,00,41,15.10
2017,08,04,00,42,15.10
2017,08,04,00,43,15.10
2017,08,04,00,44,15.20
2017,08,04,00,45,15.30
2017,08,04,00,46,15.30
2017,08,04,00,47,15.30
2017,08,04,00,48,15.20
2017,08,04,00,49,15.20
2017,08,04,00,50,15.20
2017,08,04,00,51,15.20
2017,08,04,00,52,15.20
2017,08,04,00,53,15.20
2017,08,04,00,54,15.20
2017,08,04,00,55,15.20
2017,08,04,00,56,15.20
2017,08,04,00,57,15.20
2017,08,04,00,58,15.20
2017,08,04,00,59,15.20
2017,08,04,01,00,15.20
2017,08,04,01,01,15.10
2017,08,04,01,02,15.10
2017,08,04,01,03,15.00
2017,08,04,01,04,15.00
2017,08,04,01,05,14.90
2017,08,04,01,06,14.80
2017,08,04,01,07,14.70
2017,08,04,01,08,14.70
2017,08,04,01,09,14.70
2017,08,04,01,10,14.60
2017,08,04,01,11,14.60
2017,08,04,01,12,14.60
2017,08,04,01,13,14.60
2017,08,04,01,14,14.60
2017,08,04,01,15,14.70
2017,08,04,01,16,14.70
2017,08,04,01,17,14.70
2017,08,04,01,18,14.70
2017,08,04,01,19,14.70
2017,08,04,01,20,14.80
2017,08,04,01,21,14.80
2017,08,04,01,22,14.80
2017,08,04,01,23,14.90
2017,08,04,01,24,14.90
2017,08,04,01,25,15.00
2017,08,04,01,26,15.10
2017,08,04,01,27,15.20
2017,08,04,01,28,15.20
2017,08,04,01,29,15.20
2017,08,04,01,30,15.20
2017,08,04,01,31,15.10
2017,08,04,01,32,15.00
2017,08,04,01,33,15.00
2017,08,04,01,34,14.90
2017,08,04,01,35,14.90
2017,08,04,01,36,15.00
2017,08,04,01,37,15.00
2017,08,04,01,38,15.10
2017,08,04,01,39,15.10
2017,08,04,01,40,15.10
2017,08,04,01,41,15.00
2017,08,04,01,42,15.00
2017,08,04,01,43,15.10
2017,08,04,01,44,15.10
2017,08,04,01,45,15.00
2017,08,04,01,46,15.00
2017,08,04,01,47,15.00
2017,08,04,01,48,14.90
2017,08,04,01,49,15.00
2017,08,04,01,50,15.10
2017,08,04,01,51,15.10
2017,08,04,01,52,15.20
2017,08,04,01,53,15.30
2017,08,04,01,54,15.50
2017,08,04,01,55,15.90
2017,08,04,01,56,16.20
2017,08,04,01,57,16.40
2017,08,04,01,58,16.60
2017,08,04,01,59,16.70
2017,08,04,02,00,16.70
2017,08,04,02,01,16.70
2017,08,04,02,02,16.70
2017,08,04,02,03,16.80
2017,08,04,02,04,16.90
2017,08,04,02,05,16.90
2017,08,04,02,06,17.00
2017,08,04,02,07,17.10
2017,08,04,02,08,17.20
2017,08,04,02,09,17.30
2017,08,04,02,10,17.30
2017,08,04,02,11,17.20
2017,08,04,02,12,17.10
2017,08,04,02,13,17.20
2017,08,04,02,14,17.20
2017,08,04,02,15,17.30
2017,08,04,02,16,17.20
2017,08,04,02,17,17.00
2017,08,04,02,18,16.90
2017,08,04,02,19,17.10
2017,08,04,02,20,17.40
2017,08,04,02,21,17.70
2017,08,04,02,22,17.90
2017,08,04,02,23,17.90
2017,08,04,02,24,17.70
2017,08,04,02,25,17.50
2017,08,04,02,26,17.40
2017,08,04,02,27,17.30
2017,08,04,02,28,17.30
2017,08,04,02,29,17.20
2017,08,04,02,30,17.10
2017,08,04,02,31,17.00
2017,08,04,02,32,16.80
2017,08,04,02,33,16.70
2017,08,04,02,34,16.50
2017,08,04,02,35,16.40
2017,08,04,02,36,16.30
2017,08,04,02,37,16.30
2017,08,04,02,38,16.20
2017,08,04,02,39,16.20
2017,08,04,02,40,16.10
2017,08,04,02,41,16.00
2017,08,04,02,42,15.90
2017,08,04,02,43,15.90
2017,08,04,02,44,15.80
2017,08,04,02,45,15.80
2017,08,04,02,46,15.80
2017,08,04,02,47,15.70
2017,08,04,02,48,15.70
2017,08,04,02,49,15.60
2017,08,04,02,50,15.60
2017,08,04,02,51,15.60
2017,08,04,02,52,15.60
2017,08,04,02,53,15.50
2017,08,04,02,54,15.50
2017,08,04,02,55,15.50
2017,08,04,02,56,15.40
2017,08,04,02,57,15.50
2017,08,04,02,58,15.50
2017,08,04,02,59,15.50
2017,08,04,03,00,15.50
2017,08,04,03,01,15.60
2017,08,04,03,02,15.70
2017,08,04,03,03,15.70
2017,08,04,03,04,15.80
2017,08,04,03,05,15.80
2017,08,04,03,06,15.90
2017,08,04,03,07,16.00
2017,08,04,03,08,16.10
2017,08,04,03,09,16.20
2017,08,04,03,10,16.20
2017,08,04,03,11,16.20
2017,08,04,03,12,16.30
2017,08,04,03,13,16.30
2017,08,04,03,14,16.30
2017,08,04,03,15,16.30
2017,08,04,03,16,16.30
2017,08,04,03,17,16.30
2017,08,04,03,18,16.30
2017,08,04,03,19,16.40
2017,08,04,03,20,16.40
2017,08,04,03,21,16.40
2017,08,04,03,22,16.40
2017,08,04,03,23,16.40
2017,08,04,03,24,16.40
2017,08,04,03,25,16.50
2017,08,04,03,26,16.50
2017,08,04,03,27,16.60
2017,08,04,03,28,16.60
2017,08,04,03,29,16.60
2017,08,04,03,30,16.60
2017,08,04,03,31,16.50
2017,08,04,03,32,16.50
2017,08,04,03,33,16.50
2017,08,04,03,34,16.50
2017,08,04,03,35,16.50
2017,08,04,03,36,16.50
2017,08,04,03,37,16.50
2017,08,04,03,38,16.50
2017,08,04,03,39,16.50
2017,08,04,03,40,16.60
2017,08,04,03,41,16.60
2017,08,04,03,42,16.60
2017,08,04,03,43,16.60
2017,08,04,03,44,16.60
2017,08,04,03,45,16.60
2017,08,04,03,46,16.60
2017,08,04,03,47,16.70
2017,08,04,03,48,16.70
2017,08,04,03,49,16.70
2017,08,04,03,50,16.70
2017,08,04,03,51,16.80
2017,08,04,03,52,16.80
2017,08,04,03,53,16.80
2017,08,04,03,54,16.80
2017,08,04,03,55,16.70
2017,08,04,03,56,16.70
2017,08,04,03,57,16.70
2017,08,04,03,58,16.60
2017,08,04,03,59,16.60
2017,08,04,04,00,16.60
2017,08,04,04,01,16.60
2017,08,04,04,02,16.60
2017,08,04,04,03,16.60
2017,08,04,04,04,16.50
2017,08,04,04,05,16.50
2017,08,04,04,06,16.40
2017,08,04,04,07,16.40
2017,08,04,04,08,16.40
2017,08,04,04,09,16.40
2017,08,04,04,10,16.40
2017,08,04,04,11,16.40
2017,08,04,04,12,16.50
2017,08,04,04,13,16.60
2017,08,04,04,14,16.60
2017,08,04,04,15,16.90
2017,08,04,04,16,17.10
2017,08,04,04,17,17.20
2017,08,04,04,18,17.50
2017,08,04,04,19,17.70
2017,08,04,04,20,17.90
2017,08,04,04,21,18.20
2017,08,04,04,22,18.50
2017,08,04,04,23,18.70
2017,08,04,04,24,18.90
2017,08,04,04,25,19.10
2017,08,04,04,26,19.40
2017,08,04,04,27,19.70
2017,08,04,04,28,19.70
2017,08,04,04,29,19.70
2017,08,04,04,30,19.50
2017,08,04,04,31,19.20
2017,08,04,04,32,19.10
2017,08,04,04,33,18.90
2017,08,04,04,34,18.70
2017,08,04,04,35,18.40
2017,08,04,04,36,18.10
2017,08,04,04,37,17.80
2017,08,04,04,38,17.60
2017,08,04,04,39,17.40
2017,08,04,04,40,17.30
2017,08,04,04,41,17.20
2017,08,04,04,42,17.10
2017,08,04,04,43,17.00
2017,08,04,04,44,17.00
2017,08,04,04,45,17.00
2017,08,04,04,46,17.00
2017,08,04,04,47,17.00
2017,08,04,04,48,17.00
2017,08,04,04,49,16.90
2017,08,04,04,50,16.90
2017,08,04,04,51,16.80
2017,08,04,04,52,16.80
2017,08,04,04,53,16.80
2017,08,04,04,54,16.90
2017,08,04,04,55,17.00
2017,08,04,04,56,17.00
2017,08,04,04,57,17.10
2017,08,04,04,58,17.10
2017,08,04,04,59,17.20
2017,08,04,05,00,17.30
2017,08,04,05,01,17.30
2017,08,04,05,02,17.30
2017,08,04,05,03,17.30
2017,08,04,05,04,17.30
2017,08,04,05,05,17.30
2017,08,04,05,06,17.20
2017,08,04,05,07,17.20
2017,08,04,05,08,17.20
2017,08,04,05,09,17.30
2017,08,04,05,10,17.40
2017,08,04,05,11,17.70
2017,08,04,05,12,17.90
2017,08,04,05,13,18.00
2017,08,04,05,14,18.10
2017,08,04,05,15,18.20
2017,08,04,05,16,18.20
2017,08,04,05,17,18.10
2017,08,04,05,18,17.90
2017,08,04,05,19,17.80
2017,08,04,05,20,17.70
2017,08,04,05,21,17.60
2017,08,04,05,22,17.50
2017,08,04,05,23,17.40
2017,08,04,05,24,17.30
2017,08,04,05,25,17.10
2017,08,04,05,26,16.90
2017,08,04,05,27,16.70
2017,08,04,05,28,16.50
2017,08,04,05,29,16.40
2017,08,04,05,30,16.40
2017,08,04,05,31,16.40
2017,08,04,05,32,16.50
2017,08,04,05,33,16.50
2017,08,04,05,34,16.50
2017,08,04,05,35,16.50
2017,08,04,05,36,16.50
2017,08,04,05,37,16.50
2017,08,04,05,38,17.10
2017,08,04,05,39,17.70
2017,08,04,05,40,18.00
2017,08,04,05,41,18.10
2017,08,04,05,42,18.30
2017,08,04,05,43,18.40
2017,08,04,05,44,18.50
2017,08,04,05,45,18.60
2017,08,04,05,46,18.60
2017,08,04,05,47,18.60
2017,08,04,05,48,18.70
2017,08,04,05,49,18.70
2017,08,04,05,50,18.80
2017,08,04,05,51,18.80
2017,08,04,05,52,18.80
2017,08,04,05,53,18.80
2017,08,04,05,54,18.80
2017,08,04,05,55,18.80
2017,08,04,05,56,18.80
2017,08,04,05,57,18.80
2017,08,04,05,58,18.80
2017,08,04,05,59,18.80
2017,08,04,06,00,18.80
2017,08,04,06,01,18.70
2017,08,04,06,02,18.60
2017,08,04,06,03,18.40
2017,08,04,06,04,18.20
2017,08,04,06,05,18.10
2017,08,04,06,06,18.10
2017,08,04,06,07,18.20
2017,08,04,06,08,18.40
2017,08,04,06,09,18.60
2017,08,04,06,10,18.70
2017,08,04,06,11,18.70
2017,08,04,06,12,18.70
2017,08,04,06,13,18.80
2017,08,04,06,14,19.00
2017,08,04,06,15,19.10
2017,08,04,06,16,19.30
2017,08,04,06,17,19.50
2017,08,04,06,18,19.80
2017,08,04,06,19,20.10
2017,08,04,06,20,20.30
2017,08,04,06,21,20.40
2017,08,04,06,22,20.60
2017,08,04,06,23,20.80
2017,08,04,06,24,21.00
2017,08,04,06,25,21.10
2017,08,04,06,26,21.10
2017,08,04,06,27,20.60
2017,08,04,06,28,20.20
2017,08,04,06,29,20.00
2017,08,04,06,30,19.70
2017,08,04,06,31,19.20
2017,08,04,06,32,18.90
2017,08,04,06,33,18.80
2017,08,04,06,34,18.80
2017,08,04,06,35,18.80
2017,08,04,06,36,18.90
2017,08,04,06,37,19.00
2017,08,04,06,38,19.10
2017,08,04,06,39,19.10
2017,08,04,06,40,19.00
2017,08,04,06,41,19.00
2017,08,04,06,42,19.10
2017,08,04,06,43,19.10
2017,08,04,06,44,19.10
2017,08,04,06,45,19.10
2017,08,04,06,46,19.00
2017,08,04,06,47,18.90
2017,08,04,06,48,18.80
2017,08,04,06,49,18.70
2017,08,04,06,50,18.60
2017,08,04,06,51,18.60
2017,08,04,06,52,18.70
2017,08,04,06,53,18.80
2017,08,04,06,54,18.80
2017,08,04,06,55,18.80
2017,08,04,06,56,18.80
2017,08,04,06,57,18.80
2017,08,04,06,58,18.80
2017,08,04,06,59,18.70
2017,08,04,07,00,18.60
2017,08,04,07,01,18.50
2017,08,04,07,02,18.40
2017,08,04,07,03,18.40
2017,08,04,07,04,18.40
2017,08,04,07,05,18.40
2017,08,04,07,06,18.50
2017,08,04,07,07,18.50
2017,08,04,07,08,18.60
2017,08,04,07,09,18.60
2017,08,04,07,10,18.70
2017,08,04,07,11,18.70
2017,08,04,07,12,18.60
2017,08,04,07,13,18.60
2017,08,04,07,14,18.60
2017,08,04,07,15,18.50
2017,08,04,07,16,18.50
2017,08,04,07,17,18.40
2017,08,04,07,18,18.40
2017,08,04,07,19,18.30
2017,08,04,07,20,18.30
2017,08,04,07,21,18.30
2017,08,04,07,22,18.20
2017,08,04,07,23,18.20
2017,08,04,07,24,18.10
2017,08,04,07,25,18.00
2017,08,04,07,26,18.00
2017,08,04,07,27,18.00
2017,08,04,07,28,18.00
2017,08,04,07,29,18.00
2017,08,04,07,30,18.00
2017,08,04,07,31,18.00
2017,08,04,07,32,18.10
2017,08,04,07,33,18.20
2017,08,04,07,34,18.30
2017,08,04,07,35,18.40
2017,08,04,07,36,18.40
2017,08,04,07,37,18.40
2017,08,04,07,38,18.40
2017,08,04,07,39,18.30
2017,08,04,07,40,18.30
2017,08,04,07,41,18.20
2017,08,04,07,42,18.20
2017,08,04,07,43,18.10
2017,08,04,07,44,18.10
2017,08,04,07,45,18.00
2017,08,04,07,46,18.00
2017,08,04,07,47,17.90
2017,08,04,07,48,17.80
2017,08,04,07,49,17.80
2017,08,04,07,50,17.90
2017,08,04,07,51,17.90
2017,08,04,07,52,17.90
2017,08,04,07,53,17.90
2017,08,04,07,54,17.90
2017,08,04,07,55,17.90
2017,08,04,07,56,17.90
2017,08,04,07,57,17.90
2017,08,04,07,58,17.90
2017,08,04,07,59,17.90
2017,08,04,08,00,17.90
2017,08,04,08,01,17.90
2017,08,04,08,02,17.90
2017,08,04,08,03,17.90
2017,08,04,08,04,17.90
2017,08,04,08,05,17.90
2017,08,04,08,06,17.90
2017,08,04,08,07,17.80
2017,08,04,08,08,17.80
2017,08,04,08,09,17.80
2017,08,04,08,10,17.80
2017,08,04,08,11,17.80
2017,08,04,08,12,17.80
2017,08,04,08,13,17.80
2017,08,04,08,14,17.80
2017,08,04,08,15,17.80
2017,08,04,08,16,17.80
2017,08,04,08,17,17.80
2017,08,04,08,18,17.90
2017,08,04,08,19,17.90
2017,08,04,08,20,18.00
2017,08,04,08,21,18.10
2017,08,04,08,22,18.10
2017,08,04,08,23,18.10
2017,08,04,08,24,18.10
2017,08,04,08,25,18.00
2017,08,04,08,26,17.80
2017,08,04,08,27,17.70
2017,08,04,08,28,17.70
2017,08,04,08,29,17.60
2017,08,04,08,30,17.50
2017,08,04,08,31,17.50
2017,08,04,08,32,17.50
2017,08,04,08,33,17.60
2017,08,04,08,34,17.60
2017,08,04,08,35,17.50
2017,08,04,08,36,17.50
2017,08,04,08,37,17.40
2017,08,04,08,38,17.40
2017,08,04,08,39,17.40
2017,08,04,08,40,17.30
2017,08,04,08,41,17.20
2017,08,04,08,42,17.10
2017,08,04,08,43,17.00
2017,08,04,08,44,16.90
2017,08,04,08,45,16.80
2017,08,04,08,46,16.80
2017,08,04,08,47,16.90
2017,08,04,08,48,16.90
2017,08,04,08,49,16.90
2017,08,04,08,50,17.00
2017,08,04,08,51,17.00
2017,08,04,08,52,17.10
2017,08,04,08,53,17.20
2017,08,04,08,54,17.30
2017,08,04,08,55,17.30
2017,08,04,08,56,17.40
2017,08,04,08,57,17.40
2017,08,04,08,58,17.50
2017,08,04,08,59,17.50
2017,08,04,09,00,17.50
2017,08,04,09,01,17.50
2017,08,04,09,02,17.50
2017,08,04,09,03,17.50
2017,08,04,09,04,17.40
2017,08,04,09,05,17.40
2017,08,04,09,06,17.20
2017,08,04,09,07,17.20
2017,08,04,09,08,17.20
2017,08,04,09,09,17.20
2017,08,04,09,10,17.20
2017,08,04,09,11,17.30
2017,08,04,09,12,17.30
2017,08,04,09,13,17.30
2017,08,04,09,14,17.40
2017,08,04,09,15,17.40
2017,08,04,09,16,17.50
2017,08,04,09,17,17.50
2017,08,04,09,18,17.50
2017,08,04,09,19,17.60
2017,08,04,09,20,17.60
2017,08,04,09,21,17.60
2017,08,04,09,22,17.70
2017,08,04,09,23,17.80
2017,08,04,09,24,17.90
2017,08,04,09,25,18.00
2017,08,04,09,26,18.10
2017,08,04,09,27,18.20
2017,08,04,09,28,18.20
2017,08,04,09,29,18.30
2017,08,04,09,30,18.30
2017,08,04,09,31,18.30
2017,08,04,09,32,18.30
2017,08,04,09,33,18.30
2017,08,04,09,34,18.30
2017,08,04,09,35,18.40
2017,08,04,09,36,18.40
2017,08,04,09,37,18.40
2017,08,04,09,38,18.40
2017,08,04,09,39,18.40
2017,08,04,09,40,18.50
2017,08,04,09,41,18.50
2017,08,04,09,42,18.50
2017,08,04,09,43,18.50
2017,08,04,09,44,18.50
2017,08,04,09,45,18.60
2017,08,04,09,46,18.60
2017,08,04,09,47,18.70
2017,08,04,09,48,18.70
2017,08,04,09,49,18.70
2017,08,04,09,50,18.70
2017,08,04,09,51,18.60
2017,08,04,09,52,18.60
2017,08,04,09,53,18.50
2017,08,04,09,54,18.50
2017,08,04,09,55,18.50
2017,08,04,09,56,18.60
2017,08,04,09,57,18.60
2017,08,04,09,58,18.60
2017,08,04,09,59,18.60
2017,08,04,10,00,18.50
2017,08,04,10,01,18.50
2017,08,04,10,02,18.40
2017,08,04,10,03,18.30
2017,08,04,10,04,18.30
2017,08,04,10,05,18.30
2017,08,04,10,06,18.30
2017,08,04,10,07,18.40
2017,08,04,10,08,18.40
2017,08,04,10,09,18.40
2017,08,04,10,10,18.50
2017,08,04,10,11,18.50
2017,08,04,10,12,18.50
2017,08,04,10,13,18.50
2017,08,04,10,14,18.60
2017,08,04,10,15,18.70
2017,08,04,10,16,18.80
2017,08,04,10,17,18.80
2017,08,04,10,18,18.90
2017,08,04,10,19,19.00
2017,08,04,10,20,19.00
2017,08,04,10,21,19.10
2017,08,04,10,22,19.10
2017,08,04,10,23,19.10
2017,08,04,10,24,19.20
2017,08,04,10,25,19.20
2017,08,04,10,26,19.20
2017,08,04,10,27,19.20
2017,08,04,10,28,19.20
2017,08,04,10,29,19.30
2017,08,04,10,30,19.30
2017,08,04,10,31,19.30
2017,08,04,10,32,19.30
2017,08,04,10,33,19.30
2017,08,04,10,34,19.30
2017,08,04,10,35,19.30
2017,08,04,10,36,19.30
2017,08,04,10,37,19.30
2017,08,04,10,38,19.30
2017,08,04,10,39,19.40
2017,08,04,10,40,19.40
2017,08,04,10,41,19.40
2017,08,04,10,42,19.40
2017,08,04,10,43,19.40
2017,08,04,10,44,19.40
2017,08,04,10,45,19.40
2017,08,04,10,46,19.30
2017,08,04,10,47,19.30
2017,08,04,10,48,19.30
2017,08,04,10,49,19.20
2017,08,04,10,50,19.20
2017,08,04,10,51,19.20
2017,08,04,10,52,19.20
2017,08,04,10,53,19.20
2017,08,04,10,54,19.20
2017,08,04,10,55,19.20
2017,08,04,10,56,19.30
2017,08,04,10,57,19.30
2017,08,04,10,58,19.40
2017,08,04,10,59,19.40
2017,08,04,11,00,19.40
2017,08,04,11,01,19.40
2017,08,04,11,02,19.40
2017,08,04,11,03,19.40
2017,08,04,11,04,19.40
2017,08,04,11,05,19.40
2017,08,04,11,06,19.40
2017,08,04,11,07,19.40
2017,08,04,11,08,19.40
2017,08,04,11,09,19.50
2017,08,04,11,10,19.50
2017,08,04,11,11,19.50
2017,08,04,11,12,19.60
2017,08,04,11,13,19.60
2017,08,04,11,14,19.60
2017,08,04,11,15,19.60
2017,08,04,11,16,19.60
2017,08,04,11,17,19.60
2017,08,04,11,18,19.70
2017,08,04,11,19,19.70
2017,08,04,11,20,19.70
2017,08,04,11,21,19.70
2017,08,04,11,22,19.80
2017,08,04,11,23,19.80
2017,08,04,11,24,19.80
2017,08,04,11,25,19.90
2017,08,04,11,26,19.90
2017,08,04,11,27,19.90
2017,08,04,11,28,19.90
2017,08,04,11,29,19.90
2017,08,04,11,30,19.80
2017,08,04,11,31,19.80
2017,08,04,11,32,19.80
2017,08,04,11,33,19.90
2017,08,04,11,34,19.90
2017,08,04,11,35,20.00
2017,08,04,11,36,20.00
2017,08,04,11,37,20.00
2017,08,04,11,38,20.00
2017,08,04,11,39,20.00
2017,08,04,11,40,20.00
2017,08,04,11,41,20.00
2017,08,04,11,42,20.10
2017,08,04,11,43,20.20
2017,08,04,11,44,20.30
2017,08,04,11,45,20.40
2017,08,04,11,46,20.50
2017,08,04,11,47,20.60
2017,08,04,11,48,20.60
2017,08,04,11,49,20.60
2017,08,04,11,50,20.60
2017,08,04,11,51,20.70
2017,08,04,11,52,20.70
2017,08,04,11,53,20.70
2017,08,04,11,54,20.70
2017,08,04,11,55,20.60
2017,08,04,11,56,20.60
2017,08,04,11,57,20.60
2017,08,04,11,58,20.50
2017,08,04,11,59,20.50
2017,08,04,12,00,20.40
2017,08,04,12,01,20.40
2017,08,04,12,02,20.40
2017,08,04,12,03,20.40
2017,08,04,12,04,20.30
2017,08,04,12,05,20.30
2017,08,04,12,06,20.10
2017,08,04,12,07,20.00
2017,08,04,12,08,19.90
2017,08,04,12,09,19.70
2017,08,04,12,10,19.60
2017,08,04,12,11,19.50
2017,08,04,12,12,19.50
2017,08,04,12,13,19.40
2017,08,04,12,14,19.40
2017,08,04,12,15,19.40
2017,08,04,12,16,19.40
2017,08,04,12,17,19.40
2017,08,04,12,18,19.40
2017,08,04,12,19,19.40
2017,08,04,12,20,19.40
2017,08,04,12,21,19.40
2017,08,04,12,22,19.40
2017,08,04,12,23,19.50
2017,08,04,12,24,19.50
2017,08,04,12,25,19.50
2017,08,04,12,26,19.60
2017,08,04,12,27,19.60
2017,08,04,12,28,19.60
2017,08,04,12,29,19.60
2017,08,04,12,30,19.60
2017,08,04,12,31,19.60
2017,08,04,12,32,19.70
2017,08,04,12,33,19.70
2017,08,04,12,34,19.70
2017,08,04,12,35,19.70
2017,08,04,12,36,19.60
2017,08,04,12,37,19.60
2017,08,04,12,38,19.60
2017,08,04,12,39,19.50
2017,08,04,12,40,19.50
2017,08,04,12,41,19.40
2017,08,04,12,42,19.30
2017,08,04,12,43,19.20
2017,08,04,12,44,19.20
2017,08,04,12,45,19.20
2017,08,04,12,46,19.20
2017,08,04,12,47,19.20
2017,08,04,12,48,19.30
2017,08,04,12,49,19.30
2017,08,04,12,50,19.30
2017,08,04,12,51,19.30
2017,08,04,12,52,19.30
2017,08,04,12,53,19.30
2017,08,04,12,54,19.30
2017,08,04,12,55,19.30
2017,08,04,12,56,19.30
2017,08,04,12,57,19.30
2017,08,04,12,58,19.30
2017,08,04,12,59,19.30
2017,08,04,13,00,19.30
2017,08,04,13,01,19.30
2017,08,04,13,02,19.30
2017,08,04,13,03,19.30
2017,08,04,13,04,19.20
2017,08,04,13,05,19.20
2017,08,04,13,06,19.20
2017,08,04,13,07,19.20
2017,08,04,13,08,19.20
2017,08,04,13,09,19.20
2017,08,04,13,10,19.20
2017,08,04,13,11,19.20
2017,08,04,13,12,19.20
2017,08,04,13,13,19.20
2017,08,04,13,14,19.20
2017,08,04,13,15,19.20
2017,08,04,13,16,19.20
2017,08,04,13,17,19.20
2017,08,04,13,18,19.20
2017,08,04,13,19,19.20
2017,08,04,13,20,19.30
2017,08,04,13,21,19.30
2017,08,04,13,22,19.30
2017,08,04,13,23,19.30
2017,08,04,13,24,19.30
2017,08,04,13,25,19.30
2017,08,04,13,26,19.30
2017,08,04,13,27,19.30
2017,08,04,13,28,19.40
2017,08,04,13,29,19.40
2017,08,04,13,30,19.40
2017,08,04,13,31,19.40
2017,08,04,13,32,19.40
2017,08,04,13,33,19.50
2017,08,04,13,34,19.50
2017,08,04,13,35,19.50
2017,08,04,13,36,19.60
2017,08,04,13,37,19.60
2017,08,04,13,38,19.60
2017,08,04,13,39,19.60
2017,08,04,13,40,19.60
2017,08,04,13,41,19.60
2017,08,04,13,42,19.60
2017,08,04,13,43,19.60
2017,08,04,13,44,19.60
2017,08,04,13,45,19.70
2017,08,04,13,46,19.70
2017,08,04,13,47,19.70
2017,08,04,13,48,19.70
2017,08,04,13,49,19.70
2017,08,04,13,50,19.70
2017,08,04,13,51,19.70
2017,08,04,13,52,19.70
2017,08,04,13,53,19.70
2017,08,04,13,54,19.70
2017,08,04,13,55,19.80
2017,08,04,13,56,19.80
2017,08,04,13,57,19.90
2017,08,04,13,58,19.90
2017,08,04,13,59,20.00
2017,08,04,14,00,20.00
2017,08,04,14,01,20.10
2017,08,04,14,02,20.10
2017,08,04,14,03,20.10
2017,08,04,14,04,20.10
2017,08,04,14,05,20.20
2017,08,04,14,06,20.30
2017,08,04,14,07,20.30
2017,08,04,14,08,20.30
2017,08,04,14,09,20.30
2017,08,04,14,10,20.30
2017,08,04,14,11,20.30
2017,08,04,14,12,20.30
2017,08,04,14,13,20.40
2017,08,04,14,14,20.40
2017,08,04,14,15,20.50
2017,08,04,14,16,20.50
2017,08,04,14,17,20.60
2017,08,04,14,18,20.60
2017,08,04,14,19,20.60
2017,08,04,14,20,20.70
2017,08,04,14,21,20.70
2017,08,04,14,22,20.80
2017,08,04,14,23,20.80
2017,08,04,14,24,20.80
2017,08,04,14,25,20.80
2017,08,04,14,26,20.90
2017,08,04,14,27,20.90
2017,08,04,14,28,21.00
2017,08,04,14,29,21.00
2017,08,04,14,30,21.00
2017,08,04,14,31,21.10
2017,08,04,14,32,21.10
2017,08,04,14,33,21.10
2017,08,04,14,34,21.10
2017,08,04,14,35,21.10
2017,08,04,14,36,21.10
2017,08,04,14,37,21.10
2017,08,04,14,38,21.10
2017,08,04,14,39,21.10
2017,08,04,14,40,21.10
2017,08,04,14,41,21.10
2017,08,04,14,42,21.10
2017,08,04,14,43,21.10
2017,08,04,14,44,21.20
2017,08,04,14,45,21.20
2017,08,04,14,46,21.20
2017,08,04,14,47,21.20
2017,08,04,14,48,21.20
2017,08,04,14,49,21.30
2017,08,04,14,50,21.30
2017,08,04,14,51,21.30
2017,08,04,14,52,21.40
2017,08,04,14,53,21.40
2017,08,04,14,54,21.40
2017,08,04,14,55,21.40
2017,08,04,14,56,21.40
2017,08,04,14,57,21.40
2017,08,04,14,58,21.40
2017,08,04,14,59,21.30
2017,08,04,15,00,21.30
2017,08,04,15,01,21.30
2017,08,04,15,02,21.20
2017,08,04,15,03,21.20
2017,08,04,15,04,21.20
2017,08,04,15,05,21.20
2017,08,04,15,06,21.20
2017,08,04,15,07,21.30
2017,08,04,15,08,21.30
2017,08,04,15,09,21.40
2017,08,04,15,10,21.40
2017,08,04,15,11,21.50
2017,08,04,15,12,21.50
2017,08,04,15,13,21.60
2017,08,04,15,14,21.60
2017,08,04,15,15,21.60
2017,08,04,15,16,21.70
2017,08,04,15,17,21.70
2017,08,04,15,18,21.70
2017,08,04,15,19,21.70
2017,08,04,15,20,21.80
2017,08,04,15,21,21.80
2017,08,04,15,22,21.80
2017,08,04,15,23,21.80
2017,08,04,15,24,21.80
2017,08,04,15,25,21.80
2017,08,04,15,26,21.90
2017,08,04,15,27,21.90
2017,08,04,15,28,21.80
2017,08,04,15,29,21.80
2017,08,04,15,30,21.80
2017,08,04,15,31,21.80
2017,08,04,15,32,21.80
2017,08,04,15,33,21.80
2017,08,04,15,34,21.80
2017,08,04,15,35,21.80
2017,08,04,15,36,21.90
2017,08,04,15,37,21.90
2017,08,04,15,38,21.90
2017,08,04,15,39,21.90
2017,08,04,15,40,21.90
2017,08,04,15,41,21.90
2017,08,04,15,42,22.00
2017,08,04,15,43,22.00
2017,08,04,15,44,22.00
2017,08,04,15,45,22.00
2017,08,04,15,46,22.10
2017,08,04,15,47,22.00
2017,08,04,15,48,22.00
2017,08,04,15,49,22.00
2017,08,04,15,50,22.00
2017,08,04,15,51,22.00
2017,08,04,15,52,22.00
2017,08,04,15,53,22.00
2017,08,04,15,54,22.10
2017,08,04,15,55,22.10
2017,08,04,15,56,22.10
2017,08,04,15,57,22.20
2017,08,04,15,58,22.20
2017,08,04,15,59,22.20
2017,08,04,16,00,22.30
2017,08,04,16,01,22.30
2017,08,04,16,02,22.30
2017,08,04,16,03,22.30
2017,08,04,16,04,22.40
2017,08,04,16,05,22.40
2017,08,04,16,06,22.30
2017,08,04,16,07,22.00
2017,08,04,16,08,21.60
2017,08,04,16,09,21.30
2017,08,04,16,10,21.00
2017,08,04,16,11,20.90
2017,08,04,16,12,20.80
2017,08,04,16,13,20.90
2017,08,04,16,14,20.90
2017,08,04,16,15,20.90
2017,08,04,16,16,20.90
2017,08,04,16,17,21.00
2017,08,04,16,18,21.00
2017,08,04,16,19,20.90
2017,08,04,16,20,20.90
2017,08,04,16,21,20.80
2017,08,04,16,22,20.80
2017,08,04,16,23,20.70
2017,08,04,16,24,20.70
2017,08,04,16,25,20.60
2017,08,04,16,26,20.50
2017,08,04,16,27,20.40
2017,08,04,16,28,20.30
2017,08,04,16,29,20.20
2017,08,04,16,30,20.10
2017,08,04,16,31,20.00
2017,08,04,16,32,19.80
2017,08,04,16,33,19.70
2017,08,04,16,34,19.70
2017,08,04,16,35,19.60
2017,08,04,16,36,19.60
2017,08,04,16,37,19.50
2017,08,04,16,38,19.50
2017,08,04,16,39,19.50
2017,08,04,16,40,19.50
2017,08,04,16,41,19.50
2017,08,04,16,42,19.40
2017,08,04,16,43,19.40
2017,08,04,16,44,19.50
2017,08,04,16,45,19.50
2017,08,04,16,46,19.50
2017,08,04,16,47,19.50
2017,08,04,16,48,19.50
2017,08,04,16,49,19.40
2017,08,04,16,50,19.40
2017,08,04,16,51,19.40
2017,08,04,16,52,19.40
2017,08,04,16,53,19.40
2017,08,04,16,54,19.40
2017,08,04,16,55,19.40
2017,08,04,16,56,19.40
2017,08,04,16,57,19.50
2017,08,04,16,58,19.50
2017,08,04,16,59,19.60
2017,08,04,17,00,19.60
2017,08,04,17,01,19.60
2017,08,04,17,02,19.60
2017,08,04,17,03,19.60
2017,08,04,17,04,19.60
2017,08,04,17,05,19.60
2017,08,04,17,06,19.60
2017,08,04,17,07,19.60
2017,08,04,17,08,19.60
2017,08,04,17,09,19.60
2017,08,04,17,10,19.60
2017,08,04,17,11,19.70
2017,08,04,17,12,19.70
2017,08,04,17,13,19.80
2017,08,04,17,14,19.80
2017,08,04,17,15,19.80
2017,08,04,17,16,19.80
2017,08,04,17,17,19.90
2017,08,04,17,18,19.90
2017,08,04,17,19,20.00